Retour au catalogue

SL-8 DEB

ActifLEO
NORAD 1335·DEBRIS·🇷🇺 Russia

Lancé Mar 15, 1965 depuis Baikonur Cosmodrome

Loading…

Prochains Passages (prochaines 24 heures)

TLE

FraisSource: Space-Track

Époque: Sep 14, 2026, 08:02 UTC

1 01335U 65020E   26257.33490659  .00000659  00000-0  23350-3 0  9992
2 01335  56.0775  14.9142 0522367 300.6548  54.3917 13.87924489 22363

Suivez SL-8 DEB en temps réel avec AllMySat

Download on the App Store